Weather in Denau

Uzbekistan     38°16′29″N   67°53′46″E
temp.,
°C
wind,
m/s
gust,
m/s
humid.,
%
clouds,
%
prec.,
mm/h
press.,
hPa
HPBL,
m
8 may, sat
sat823:00+22ne224845 0.0 101326
02:00+21ne335174 0.0 101440
05:00+20ne335570 0.0 101447
08:00+23nne33465 0.0 1015232
11:00+28wnw11325 0.0 10131802
14:00+30ssw11255 0.0 10112464
17:00+31se122392 0.0 10102166
20:00+26ne223325 0.1 101011
9 may, sun
sun923:00+24ne224056 0.1 101125
02:00+22ne354452 0.0 101063
05:00+21ne334944 0.0 101143
08:00+25nne33415 0.0 1011249
11:00+30w23287 0.0 10101831
14:00+32sw432295 0.0 10092849
17:00+32sw2220100 0.0 10082850
20:00+25ene344225 0.0 100841
10 may, mon
mon1023:00+24nne34415 0.0 100854
02:00+22nne33415 0.0 100836
05:00+21ne234337 0.0 100731
08:00+26nne2235100 0.0 1008213
11:00+31sw332555 0.0 10071193
14:00+33ssw4421100 0.0 10052563
17:00+32ssw552290 0.0 10042578
20:00+27ssw5832100 0.0 1005155
11 may, tue
tue1123:00+21e2256100 1.2 100838
02:00+20e2364100 0.8 100835
05:00+19ene2366100 1.3 100949
08:00+23nne11520 0.3 1011306
11:00+27sw22390 0.3 10101605
14:00+30sw333134 0.0 10092555
17:00+29w123250 0.0 10081321
20:00+21nne456387 1.0 1011180
12 may, wed
wed1223:00+20ne355999 1.0 1011105
02:00+20ne346274 0.0 100972
05:00+19nne23651 0.0 101049
08:00+23sw01500 0.0 1011353
11:00+26wsw54360 0.0 10111335
14:00+29sw44260 0.0 10091672
17:00+29ssw44212 0.0 10071918
20:00+24nnw013999 0.8 100811